| time (UTC) | temp F | wind direction | speed MPH | gust MPH | rain 1hr in | rain 24hr in | rain mn in | humidity % | barometer mb |
| 20260509012756 | 76 | 102 | 7.0 | 11.0 | 0.00 | 0.00 | 0.00 | 57 | |
| 20260509012301 | 76 | 97 | 5.0 | 11.0 | 0.00 | 0.00 | 0.00 | 56 | |
| 20260509011801 | 76 | 103 | 6.0 | 10.0 | 0.00 | 0.00 | 0.00 | 56 | |
| 20260509011246 | 77 | 97 | 6.0 | 11.0 | 0.00 | 0.00 | 0.00 | 55 | |
| 20260509010817 | 78 | 104 | 8.0 | 11.0 | 0.00 | 0.00 | 0.00 | 54 | |
| 20260509010234 | 78 | 105 | 7.0 | 10.0 | 0.00 | 0.00 | 0.00 | 54 | |
| 20260509005735 | 78 | 93 | 5.0 | 9.0 | 0.00 | 0.00 | 0.00 | 53 | |
| 20260509005237 | 79 | 107 | 6.0 | 9.0 | 0.00 | 0.00 | 0.00 | 53 | |
| 20260509004738 | 79 | 167 | 4.0 | 9.0 | 0.00 | 0.00 | 0.00 | 53 | |
| 20260509004255 | 79 | 101 | 4.0 | 9.0 | 0.00 | 0.00 | 0.00 | 53 | |
| 20260509003734 | 80 | 150 | 4.0 | 10.0 | 0.00 | 0.00 | 0.00 | 52 | |
| 20260509003259 | 80 | 79 | 5.0 | 8.0 | 0.00 | 0.00 | 0.00 | 51 | |
| 20260509002757 | 80 | 154 | 6.0 | 9.0 | 0.00 | 0.00 | 0.00 | 51 | |
| 20260509002255 | 80 | 132 | 6.0 | 9.0 | 0.00 | 0.00 | 0.00 | 51 | |
| 20260509001738 | 81 | 91 | 3.0 | 10.0 | 0.00 | 0.00 | 0.00 | 51 | |
| 20260509001259 | 81 | 122 | 3.0 | 8.0 | 0.00 | 0.00 | 0.00 | 51 | |
| 20260509000738 | 80 | 92 | 2.0 | 9.0 | 0.00 | 0.00 | 0.00 | 51 | |
| 20260509000251 | 80 | 100 | 5.0 | 10.0 | 0.00 | 0.00 | 0.00 | 51 | |
| 20260508235754 | 80 | 65 | 6.0 | 11.0 | 0.00 | 0.00 | 0.00 | 51 | |
| 20260508235235 | 80 | 92 | 7.0 | 11.0 | 0.00 | 0.00 | 0.00 | 51 | |
| 20260508234737 | 80 | 73 | 3.0 | 10.0 | 0.00 | 0.00 | 0.00 | 51 | |
| 20260508234245 | 81 | 156 | 5.0 | 10.0 | 0.00 | 0.00 | 0.00 | 50 | |
| 20260508233747 | 81 | 104 | 4.0 | 9.0 | 0.00 | 0.00 | 0.00 | 50 | |
| 20260508233252 | 81 | 90 | 3.0 | 9.0 | 0.00 | 0.00 | 0.00 | 50 | |
| 20260508232733 | 81 | 145 | 5.0 | 9.0 | 0.00 | 0.00 | 0.00 | 50 | |
| 20260508232244 | 81 | 78 | 4.0 | 10.0 | 0.00 | 0.00 | 0.00 | 50 | |
| 20260508231743 | 81 | 114 | 5.0 | 10.0 | 0.00 | 0.00 | 0.00 | 50 | |
| 20260508231244 | 81 | 131 | 4.0 | 11.0 | 0.00 | 0.00 | 0.00 | 51 | |
| 20260508230744 | 81 | 147 | 4.0 | 9.0 | 0.00 | 0.00 | 0.00 | 50 | |
| 20260508230238 | 81 | 102 | 6.0 | 9.0 | 0.00 | 0.00 | 0.00 | 50 | |
| 20260508225735 | 81 | 139 | 6.0 | 11.0 | 0.00 | 0.00 | 0.00 | 50 | |
| 20260508225244 | 81 | 144 | 6.0 | 11.0 | 0.00 | 0.00 | 0.00 | 50 | |
| 20260508224804 | 81 | 127 | 5.0 | 11.0 | 0.00 | 0.00 | 0.00 | 50 | |
| 20260508224237 | 82 | 160 | 5.0 | 9.0 | 0.00 | 0.00 | 0.00 | 49 | |
| 20260508223736 | 82 | 108 | 5.0 | 9.0 | 0.00 | 0.00 | 0.00 | 48 | |
| 20260508223256 | 83 | 115 | 6.0 | 9.0 | 0.00 | 0.00 | 0.00 | 48 | |
| 20260508222755 | 83 | 140 | 7.0 | 13.0 | 0.00 | 0.00 | 0.00 | 47 | |
| 20260508222238 | 84 | 85 | 4.0 | 10.0 | 0.00 | 0.00 | 0.00 | 46 | |
| 20260508221736 | 84 | 122 | 5.0 | 8.0 | 0.00 | 0.00 | 0.00 | 46 | |
| 20260508221254 | 84 | 152 | 2.0 | 8.0 | 0.00 | 0.00 | 0.00 | 47 | |
| 20260508220734 | 84 | 53 | 3.0 | 6.0 | 0.00 | 0.00 | 0.00 | 45 | |
| 20260508220238 | 84 | 93 | 2.0 | 7.0 | 0.00 | 0.00 | 0.00 | 45 | |
| 20260508215757 | 84 | 255 | 1.0 | 7.0 | 0.00 | 0.00 | 0.00 | 46 | |
| 20260508215240 | 84 | 336 | 3.0 | 8.0 | 0.00 | 0.00 | 0.00 | 45 | |
| 20260508214740 | 84 | 320 | 3.0 | 9.0 | 0.00 | 0.00 | 0.00 | 45 | |
| 20260508214241 | 84 | 30 | 2.0 | 9.0 | 0.00 | 0.00 | 0.00 | 45 | |
| 20260508213742 | 84 | 320 | 5.0 | 9.0 | 0.00 | 0.00 | 0.00 | 44 | |
| 20260508213240 | 84 | 32 | 3.0 | 8.0 | 0.00 | 0.00 | 0.00 | 45 | |
| 20260508212740 | 85 | 35 | 3.0 | 8.0 | 0.00 | 0.00 | 0.00 | 44 | |
| 20260508212247 | 84 | 284 | 3.0 | 8.0 | 0.00 | 0.00 | 0.00 | 46 | |
| 20260508211744 | 83 | 316 | 4.0 | 11.0 | 0.00 | 0.00 | 0.00 | 47 | |
| 20260508211243 | 82 | 291 | 6.0 | 11.0 | 0.00 | 0.00 | 0.00 | 47 | |
| 20260508210801 | 82 | 272 | 1.0 | 6.0 | 0.00 | 0.00 | 0.00 | 48 | |
| 20260508210257 | 82 | 318 | 2.0 | 6.0 | 0.00 | 0.00 | 0.00 | 47 | |
| 20260508205756 | 82 | 337 | 3.0 | 7.0 | 0.00 | 0.00 | 0.00 | 48 | |
| 20260508205235 | 81 | 25 | 4.0 | 7.0 | 0.00 | 0.00 | 0.00 | 49 | |
| 20260508204755 | 80 | 359 | 1.0 | 5.0 | 0.00 | 0.00 | 0.00 | 50 | |
| 20260508204256 | 79 | 222 | 3.0 | 6.0 | 0.00 | 0.00 | 0.00 | 51 | |
| 20260508203738 | 79 | 154 | 3.0 | 7.0 | 0.00 | 0.00 | 0.00 | 51 | |
| 20260508203237 | 79 | 142 | 4.0 | 7.0 | 0.00 | 0.00 | 0.00 | 50 | |
| 20260508202757 | 79 | 70 | 3.0 | 8.0 | 0.00 | 0.00 | 0.00 | 50 | |
| 20260508202233 | 79 | 26 | 4.0 | 8.0 | 0.00 | 0.00 | 0.00 | 51 | |
| 20260508201812 | 78 | 45 | 3.0 | 6.0 | 0.00 | 0.00 | 0.00 | 51 | |
| 20260508201249 | 78 | 28 | 2.0 | 6.0 | 0.00 | 0.00 | 0.00 | 52 | |
| 20260508200750 | 77 | 66 | 1.0 | 6.0 | 0.00 | 0.00 | 0.00 | 53 | |
| 20260508200254 | 77 | 131 | 3.0 | 7.0 | 0.00 | 0.00 | 0.00 | 53 | |
| 20260508195755 | 76 | 93 | 3.0 | 6.0 | 0.00 | 0.00 | 0.00 | 54 | |
| 20260508195237 | 76 | 27 | 3.0 | 6.0 | 0.00 | 0.00 | 0.00 | 54 | |
| 20260508194756 | 76 | 63 | 3.0 | 7.0 | 0.00 | 0.00 | 0.00 | 55 | |
| 20260508194233 | 75 | 155 | 3.0 | 7.0 | 0.00 | 0.00 | 0.00 | 55 | |
| 20260508193738 | 75 | 85 | 3.0 | 7.0 | 0.00 | 0.00 | 0.00 | 56 | |
| 20260508193234 | 74 | 140 | 2.0 | 8.0 | 0.00 | 0.00 | 0.00 | 58 | |
| 20260508192732 | 74 | 191 | 4.0 | 8.0 | 0.00 | 0.00 | 0.00 | 57 | |
| 20260508192235 | 74 | 85 | 3.0 | 7.0 | 0.00 | 0.00 | 0.00 | 57 | |
| 20260508191755 | 74 | 215 | 2.0 | 7.0 | 0.00 | 0.00 | 0.00 | 58 | |
| 20260508191257 | 73 | 96 | 4.0 | 8.0 | 0.00 | 0.00 | 0.00 | 59 | |
| 20260508190737 | 73 | 67 | 4.0 | 8.0 | 0.00 | 0.00 | 0.00 | 59 | |
| 20260508190235 | 73 | 94 | 3.0 | 8.0 | 0.00 | 0.00 | 0.00 | 59 | |
| 20260508185735 | 73 | 84 | 3.0 | 9.0 | 0.00 | 0.00 | 0.00 | 60 | |
| 20260508185245 | 73 | 108 | 5.0 | 9.0 | 0.00 | 0.00 | 0.00 | 59 | |
| 20260508184744 | 73 | 89 | 3.0 | 6.0 | 0.00 | 0.00 | 0.00 | 60 | |
| 20260508184245 | 72 | 93 | 1.0 | 5.0 | 0.00 | 0.00 | 0.00 | 61 | |
| 20260508183746 | 72 | 148 | 2.0 | 5.0 | 0.00 | 0.00 | 0.00 | 61 | |
| 20260508183238 | 71 | 320 | 1.0 | 4.0 | 0.00 | 0.00 | 0.00 | 63 | |
| 20260508182755 | 71 | 164 | 2.0 | 7.0 | 0.00 | 0.00 | 0.00 | 63 | |
| 20260508182239 | 71 | 92 | 3.0 | 5.0 | 0.00 | 0.00 | 0.00 | 63 | |
| 20260508181758 | 70 | 205 | 2.0 | 7.0 | 0.00 | 0.00 | 0.00 | 64 | |
| 20260508181235 | 70 | 166 | 3.0 | 7.0 | 0.00 | 0.00 | 0.00 | 65 | |
| 20260508180756 | 69 | 147 | 1.0 | 5.0 | 0.00 | 0.00 | 0.00 | 66 | |
| 20260508180256 | 69 | 61 | 3.0 | 6.0 | 0.00 | 0.00 | 0.00 | 66 | |
| 20260508175735 | 68 | 103 | 2.0 | 8.0 | 0.00 | 0.00 | 0.00 | 66 | |
| 20260508175236 | 69 | 53 | 3.0 | 8.0 | 0.00 | 0.00 | 0.00 | 65 | |
| 20260508174736 | 69 | 151 | 2.0 | 5.0 | 0.00 | 0.00 | 0.00 | 65 | |
| 20260508174255 | 69 | 109 | 1.0 | 4.0 | 0.00 | 0.00 | 0.00 | 67 | |
| 20260508173735 | 69 | 145 | 2.0 | 5.0 | 0.00 | 0.00 | 0.00 | 67 | |
| 20260508173236 | 69 | 121 | 2.0 | 5.0 | 0.00 | 0.00 | 0.00 | 68 | |
| 20260508172757 | 68 | 186 | 2.0 | 5.0 | 0.00 | 0.00 | 0.00 | 67 | |
| 20260508172242 | 68 | 247 | 1.0 | 5.0 | 0.00 | 0.00 | 0.00 | 69 | |
| 20260508171740 | 67 | 206 | 3.0 | 5.0 | 0.00 | 0.00 | 0.00 | 71 | |
| 20260508171241 | 66 | 197 | 3.0 | 5.0 | 0.00 | 0.00 | 0.00 | 72 | |
| 20260508170739 | 65 | 280 | 1.0 | 5.0 | 0.00 | 0.00 | 0.00 | 73 | |
| 20260508170233 | 65 | 104 | 1.0 | 6.0 | 0.00 | 0.00 | 0.00 | 74 | |
| 20260508165732 | 64 | 104 | 3.0 | 6.0 | 0.00 | 0.00 | 0.00 | 75 | |
| 20260508165301 | 64 | 135 | 1.0 | 4.0 | 0.00 | 0.00 | 0.00 | 76 | |
| 20260508164740 | 64 | 217 | 2.0 | 4.0 | 0.00 | 0.00 | 0.00 | 75 | |
| 20260508164240 | 64 | 208 | 3.0 | 4.0 | 0.00 | 0.00 | 0.00 | 75 | |
| 20260508163735 | 64 | 224 | 2.0 | 4.0 | 0.00 | 0.00 | 0.00 | 78 | |
| 20260508163233 | 63 | 293 | 1.0 | 4.0 | 0.00 | 0.00 | 0.00 | 80 | |
| 20260508162731 | 62 | 247 | 1.0 | 3.0 | 0.00 | 0.00 | 0.00 | 80 | |
| 20260508162239 | 62 | 234 | 1.0 | 5.0 | 0.00 | 0.00 | 0.00 | 81 | |
| 20260508161740 | 61 | 217 | 3.0 | 5.0 | 0.00 | 0.00 | 0.00 | 81 | |
| 20260508161247 | 61 | 264 | 0.0 | 4.0 | 0.00 | 0.00 | 0.00 | 81 | |
| 20260508160749 | 61 | 305 | 1.0 | 4.0 | 0.00 | 0.00 | 0.00 | 82 | |
| 20260508160315 | 61 | 264 | 1.0 | 4.0 | 0.00 | 0.00 | 0.00 | 83 | |
| 20260508155735 | 61 | 258 | 2.0 | 4.0 | 0.00 | 0.00 | 0.00 | 83 | |
| 20260508155232 | 60 | 267 | 1.0 | 3.0 | 0.00 | 0.00 | 0.00 | 84 | |
| 20260508154733 | 60 | 261 | 0.0 | 0.0 | 0.00 | 0.00 | 0.00 | 84 | |
| 20260508154258 | 60 | 113 | 0.0 | 0.0 | 0.00 | 0.00 | 0.00 | 84 | |
| 20260508153759 | 59 | 196 | 0.0 | 0.0 | 0.00 | 0.00 | 0.00 | 85 | |
| 20260508153235 | 59 | 20 | 0.0 | 0.0 | 0.00 | 0.00 | 0.00 | 85 | |
| 20260508152755 | 59 | 207 | 0.0 | 2.0 | 0.00 | 0.00 | 0.00 | 85 | |
| 20260508152258 | 59 | 349 | 0.0 | 4.0 | 0.00 | 0.00 | 0.00 | 85 | |
| 20260508151740 | 59 | 76 | 2.0 | 5.0 | 0.00 | 0.00 | 0.00 | 85 | |
| 20260508151251 | 59 | 58 | 3.0 | 5.0 | 0.00 | 0.00 | 0.00 | 85 | |
| 20260508150733 | 59 | 340 | 0.0 | 4.0 | 0.00 | 0.00 | 0.00 | 86 | |
| 20260508150253 | 59 | 339 | 0.0 | 5.0 | 0.00 | 0.00 | 0.00 | 85 | |
| 20260508145735 | 58 | 4 | 3.0 | 5.0 | 0.00 | 0.00 | 0.00 | 85 | |
| 20260508145238 | 58 | 335 | 2.0 | 7.0 | 0.00 | 0.00 | 0.00 | 86 | |
| 20260508144757 | 58 | 18 | 3.0 | 7.0 | 0.00 | 0.00 | 0.00 | 86 | |
| 20260508144256 | 58 | 56 | 2.0 | 4.0 | 0.00 | 0.00 | 0.00 | 86 | |
| 20260508143755 | 58 | 63 | 1.0 | 4.0 | 0.00 | 0.00 | 0.00 | 86 | |
| 20260508143252 | 58 | 82 | 2.0 | 5.0 | 0.00 | 0.00 | 0.00 | 86 | |
| 20260508142734 | 58 | 164 | 2.0 | 5.0 | 0.00 | 0.00 | 0.00 | 86 | |
| 20260508142249 | 58 | 266 | 0.0 | 2.0 | 0.00 | 0.00 | 0.00 | 86 | |
| 20260508141751 | 58 | 269 | 0.0 | 3.0 | 0.00 | 0.00 | 0.00 | 86 | |
| 20260508141236 | 58 | 204 | 0.0 | 2.0 | 0.00 | 0.00 | 0.00 | 86 | |
| 20260508140735 | 58 | 156 | 1.0 | 2.0 | 0.00 | 0.00 | 0.00 | 86 | |
| 20260508140239 | 58 | 145 | 0.0 | 1.0 | 0.00 | 0.00 | 0.00 | 86 | |
| 20260508135737 | 58 | 145 | 0.0 | 1.0 | 0.00 | 0.00 | 0.00 | 86 | |
| 20260508135315 | 58 | 145 | 0.0 | 3.0 | 0.00 | 0.00 | 0.00 | 86 | |
| 20260508134754 | 58 | 145 | 1.0 | 3.0 | 0.00 | 0.00 | 0.00 | 86 | |
| 20260508134234 | 58 | 165 | 0.0 | 3.0 | 0.00 | 0.00 | 0.00 | 86 | |
| 20260508133756 | 58 | 181 | 0.0 | 4.0 | 0.00 | 0.00 | 0.00 | 86 | |
| 20260508133256 | 58 | 106 | 1.0 | 4.0 | 0.00 | 0.00 | 0.00 | 86 | |
| 20260508132738 | 58 | 4 | 0.0 | 0.0 | 0.00 | 0.00 | 0.00 | 86 | |
| 20260508132237 | 58 | 30 | 0.0 | 0.0 | 0.00 | 0.00 | 0.00 | 86 | |
| 20260508131757 | 58 | 30 | 0.0 | 0.0 | 0.00 | 0.00 | 0.00 | 86 | |
| 20260508131237 | 57 | 23 | 0.0 | 1.0 | 0.00 | 0.00 | 0.00 | 86 | |
| 20260508130757 | 57 | 39 | 0.0 | 2.0 | 0.00 | 0.00 | 0.00 | 86 | |
| 20260508130255 | 57 | 158 | 0.0 | 2.0 | 0.00 | 0.00 | 0.00 | 85 | |
| 20260508125738 | 57 | 26 | 0.0 | 2.0 | 0.00 | 0.00 | 0.00 | 85 | |
| 20260508125246 | 57 | 34 | 0.0 | 4.0 | 0.00 | 0.00 | 0.00 | 85 | |
| 20260508124749 | 57 | 54 | 3.0 | 4.0 | 0.00 | 0.00 | 0.00 | 85 | |
| 20260508124254 | 57 | 75 | 2.0 | 4.0 | 0.00 | 0.00 | 0.00 | 85 | |
| 20260508123754 | 58 | 47 | 3.0 | 4.0 | 0.00 | 0.00 | 0.00 | 85 | |
| 20260508123236 | 58 | 29 | 1.0 | 4.0 | 0.00 | 0.00 | 0.00 | 85 | |
| 20260508122756 | 58 | 102 | 3.0 | 4.0 | 0.00 | 0.00 | 0.00 | 85 | |
| 20260508122236 | 57 | 116 | 0.0 | 2.0 | 0.00 | 0.00 | 0.00 | 85 | |
| 20260508121738 | 57 | 120 | 1.0 | 3.0 | 0.00 | 0.00 | 0.00 | 85 | |
| 20260508121302 | 57 | 113 | 2.0 | 4.0 | 0.00 | 0.00 | 0.00 | 85 | |
| 20260508120741 | 57 | 106 | 1.0 | 5.0 | 0.00 | 0.00 | 0.00 | 85 | |
| 20260508120312 | 57 | 94 | 1.0 | 2.0 | 0.00 | 0.00 | 0.00 | 84 | |
| 20260508115732 | 56 | 116 | 1.0 | 3.0 | 0.00 | 0.00 | 0.00 | 84 | |
| 20260508115252 | 56 | 93 | 1.0 | 3.0 | 0.00 | 0.00 | 0.00 | 84 | |
| 20260508114755 | 55 | 158 | 0.0 | 0.0 | 0.00 | 0.00 | 0.00 | 83 | |
| 20260508114233 | 55 | 158 | 0.0 | 0.0 | 0.00 | 0.00 | 0.00 | 83 | |
| 20260508113736 | 55 | 158 | 0.0 | 0.0 | 0.00 | 0.00 | 0.00 | 83 | |
| 20260508113238 | 55 | 158 | 0.0 | 0.0 | 0.00 | 0.00 | 0.00 | 83 | |
| 20260508112741 | 55 | 157 | 0.0 | 0.0 | 0.00 | 0.00 | 0.00 | 83 | |
| 20260508112243 | 56 | 158 | 0.0 | 0.0 | 0.00 | 0.00 | 0.00 | 83 | |
| 20260508111732 | 56 | 158 | 0.0 | 0.0 | 0.00 | 0.00 | 0.00 | 83 | |
| 20260508111254 | 56 | 158 | 0.0 | 0.0 | 0.00 | 0.00 | 0.00 | 83 | |
| 20260508110753 | 56 | 158 | 0.0 | 0.0 | 0.00 | 0.00 | 0.00 | 83 | |
| 20260508110233 | 56 | 158 | 0.0 | 0.0 | 0.00 | 0.00 | 0.00 | 83 | |
| 20260508105733 | 56 | 158 | 0.0 | 0.0 | 0.00 | 0.00 | 0.00 | 83 | |
| 20260508105258 | 56 | 158 | 0.0 | 0.0 | 0.00 | 0.00 | 0.00 | 83 | |
| 20260508104734 | 56 | 158 | 0.0 | 0.0 | 0.00 | 0.00 | 0.00 | 83 | |
| 20260508104255 | 56 | 158 | 0.0 | 0.0 | 0.00 | 0.00 | 0.00 | 83 | |
| 20260508103755 | 57 | 158 | 0.0 | 0.0 | 0.00 | 0.00 | 0.00 | 83 | |
| 20260508103235 | 57 | 158 | 0.0 | 0.0 | 0.00 | 0.00 | 0.00 | 83 | |
| 20260508102755 | 58 | 158 | 0.0 | 0.0 | 0.00 | 0.00 | 0.00 | 83 | |
| 20260508102318 | 58 | 158 | 0.0 | 0.0 | 0.00 | 0.00 | 0.00 | 83 | |
| 20260508101731 | 58 | 158 | 0.0 | 0.0 | 0.00 | 0.00 | 0.00 | 83 | |
| 20260508101254 | 58 | 158 | 0.0 | 0.0 | 0.00 | 0.00 | 0.00 | 83 | |
| 20260508100756 | 58 | 158 | 0.0 | 0.0 | 0.00 | 0.00 | 0.00 | 82 | |
| 20260508100234 | 58 | 158 | 0.0 | 0.0 | 0.00 | 0.00 | 0.00 | 83 | |
| 20260508095734 | 58 | 152 | 0.0 | 0.0 | 0.00 | 0.00 | 0.00 | 82 | |
| 20260508095253 | 58 | 152 | 0.0 | 1.0 | 0.00 | 0.00 | 0.00 | 82 | |
| 20260508094814 | 58 | 152 | 0.0 | 2.0 | 0.00 | 0.00 | 0.00 | 82 | |
| 20260508094237 | 58 | 152 | 1.0 | 2.0 | 0.00 | 0.00 | 0.00 | 82 | |
| 20260508093758 | 58 | 152 | 0.0 | 2.0 | 0.00 | 0.00 | 0.00 | 82 | |
| 20260508093239 | 59 | 152 | 0.0 | 1.0 | 0.00 | 0.00 | 0.00 | 81 | |
| 20260508092733 | 59 | 152 | 0.0 | 0.0 | 0.00 | 0.00 | 0.00 | 81 | |
| 20260508092233 | 59 | 152 | 0.0 | 0.0 | 0.00 | 0.00 | 0.00 | 81 | |
| 20260508091737 | 59 | 152 | 0.0 | 2.0 | 0.00 | 0.00 | 0.00 | 81 | |
| 20260508091258 | 59 | 152 | 0.0 | 2.0 | 0.00 | 0.00 | 0.00 | 80 | |
| 20260508090738 | 59 | 130 | 1.0 | 2.0 | 0.00 | 0.00 | 0.00 | 80 | |
| 20260508090233 | 59 | 122 | 0.0 | 3.0 | 0.00 | 0.00 | 0.00 | 80 | |
| 20260508085736 | 59 | 119 | 1.0 | 3.0 | 0.00 | 0.00 | 0.00 | 80 | |
| 20260508085237 | 59 | 120 | 1.0 | 2.0 | 0.00 | 0.00 | 0.00 | 80 | |
| 20260508084755 | 59 | 120 | 1.0 | 3.0 | 0.00 | 0.00 | 0.00 | 80 | |
| 20260508084256 | 59 | 102 | 1.0 | 3.0 | 0.00 | 0.00 | 0.00 | 80 | |
| 20260508083736 | 60 | 77 | 1.0 | 4.0 | 0.00 | 0.00 | 0.00 | 80 | |
| 20260508083239 | 60 | 74 | 2.0 | 4.0 | 0.00 | 0.00 | 0.00 | 80 | |
| 20260508082755 | 60 | 100 | 2.0 | 6.0 | 0.00 | 0.00 | 0.00 | 80 | |
| 20260508082237 | 60 | 90 | 4.0 | 6.0 | 0.00 | 0.00 | 0.00 | 79 | |
| 20260508081756 | 60 | 87 | 4.0 | 6.0 | 0.00 | 0.00 | 0.00 | 79 | |
| 20260508081259 | 60 | 78 | 3.0 | 5.0 | 0.00 | 0.00 | 0.00 | 79 | |
| 20260508080800 | 60 | 93 | 4.0 | 7.0 | 0.00 | 0.00 | 0.00 | 79 | |
| 20260508080235 | 60 | 87 | 3.0 | 7.0 | 0.00 | 0.00 | 0.00 | 79 | |
| 20260508075732 | 60 | 104 | 3.0 | 7.0 | 0.00 | 0.00 | 0.00 | 78 | |
| 20260508075236 | 61 | 95 | 3.0 | 5.0 | 0.00 | 0.00 | 0.00 | 78 | |
| 20260508074756 | 61 | 105 | 3.0 | 5.0 | 0.00 | 0.00 | 0.00 | 78 | |
| 20260508074239 | 61 | 91 | 3.0 | 5.0 | 0.00 | 0.00 | 0.00 | 77 | |
| 20260508073740 | 61 | 63 | 3.0 | 6.0 | 0.00 | 0.00 | 0.00 | 77 | |
| 20260508073253 | 61 | 62 | 3.0 | 5.0 | 0.00 | 0.00 | 0.00 | 76 | |
| 20260508072732 | 61 | 76 | 4.0 | 5.0 | 0.00 | 0.00 | 0.00 | 76 | |
| 20260508072253 | 61 | 84 | 5.0 | 6.0 | 0.00 | 0.00 | 0.00 | 75 | |
| 20260508071732 | 62 | 114 | 4.0 | 7.0 | 0.00 | 0.00 | 0.00 | 75 | |
| 20260508071237 | 62 | 87 | 4.0 | 7.0 | 0.00 | 0.00 | 0.00 | 75 | |
| 20260508070735 | 62 | 80 | 2.0 | 6.0 | 0.00 | 0.00 | 0.00 | 74 | |
| 20260508070254 | 62 | 77 | 4.0 | 6.0 | 0.00 | 0.00 | 0.00 | 74 | |
| 20260508065754 | 62 | 80 | 3.0 | 6.0 | 0.00 | 0.00 | 0.00 | 74 | |
| 20260508065233 | 62 | 34 | 3.0 | 6.0 | 0.00 | 0.00 | 0.00 | 74 | |
| 20260508064735 | 62 | 43 | 3.0 | 5.0 | 0.00 | 0.00 | 0.00 | 74 | |
| 20260508064237 | 62 | 58 | 2.0 | 8.0 | 0.00 | 0.00 | 0.00 | 74 | |
| 20260508063756 | 62 | 87 | 5.0 | 7.0 | 0.00 | 0.00 | 0.00 | 74 | |
| 20260508063255 | 62 | 44 | 3.0 | 7.0 | 0.00 | 0.00 | 0.00 | 74 | |
| 20260508062753 | 63 | 96 | 4.0 | 7.0 | 0.00 | 0.00 | 0.00 | 74 | |
| 20260508062249 | 63 | 89 | 4.0 | 6.0 | 0.00 | 0.00 | 0.00 | 74 | |
| 20260508061751 | 63 | 52 | 3.0 | 6.0 | 0.00 | 0.00 | 0.00 | 74 | |
| 20260508061318 | 63 | 95 | 2.0 | 4.0 | 0.00 | 0.00 | 0.00 | 73 | |
| 20260508060736 | 63 | 75 | 3.0 | 7.0 | 0.00 | 0.00 | 0.00 | 73 | |
| 20260508060233 | 63 | 85 | 4.0 | 7.0 | 0.00 | 0.00 | 0.00 | 73 | |
| 20260508055734 | 63 | 86 | 5.0 | 7.0 | 0.00 | 0.00 | 0.00 | 72 | |
| 20260508055250 | 63 | 135 | 3.0 | 7.0 | 0.00 | 0.00 | 0.00 | 72 | |
| 20260508054750 | 64 | 81 | 3.0 | 7.0 | 0.00 | 0.00 | 0.00 | 72 | |
| 20260508054234 | 64 | 80 | 2.0 | 7.0 | 0.00 | 0.00 | 0.00 | 71 | |
| 20260508053737 | 64 | 88 | 2.0 | 6.0 | 0.00 | 0.00 | 0.00 | 71 | |
| 20260508053254 | 64 | 112 | 3.0 | 6.0 | 0.00 | 0.00 | 0.00 | 71 | |
| 20260508052753 | 65 | 72 | 3.0 | 5.0 | 0.00 | 0.00 | 0.00 | 70 | |
| 20260508052251 | 65 | 44 | 3.0 | 5.0 | 0.00 | 0.00 | 0.00 | 70 | |
| 20260508051753 | 65 | 76 | 3.0 | 5.0 | 0.00 | 0.00 | 0.00 | 70 | |
| 20260508051256 | 65 | 43 | 3.0 | 6.0 | 0.00 | 0.00 | 0.00 | 69 | |
| 20260508050753 | 65 | 73 | 3.0 | 7.0 | 0.00 | 0.00 | 0.00 | 69 | |
| 20260508050252 | 66 | 81 | 5.0 | 7.0 | 0.00 | 0.00 | 0.00 | 68 | |
| 20260508045754 | 66 | 93 | 4.0 | 5.0 | 0.00 | 0.00 | 0.00 | 68 | |
| 20260508045250 | 66 | 97 | 4.0 | 7.0 | 0.00 | 0.00 | 0.00 | 67 | |
| 20260508044752 | 66 | 81 | 4.0 | 7.0 | 0.00 | 0.00 | 0.00 | 67 | |
| 20260508044236 | 67 | 87 | 4.0 | 7.0 | 0.00 | 0.00 | 0.00 | 66 | |
| 20260508043734 | 67 | 89 | 5.0 | 7.0 | 0.00 | 0.00 | 0.00 | 65 | |
| 20260508043232 | 67 | 91 | 4.0 | 6.0 | 0.00 | 0.00 | 0.00 | 65 | |
| 20260508042810 | 68 | 97 | 4.0 | 7.0 | 0.00 | 0.00 | 0.00 | 64 | |
| 20260508042251 | 68 | 68 | 4.0 | 8.0 | 0.00 | 0.00 | 0.00 | 64 | |
| 20260508041753 | 68 | 83 | 4.0 | 8.0 | 0.00 | 0.00 | 0.00 | 64 | |
| 20260508041237 | 68 | 95 | 4.0 | 8.0 | 0.00 | 0.00 | 0.00 | 63 | |
| 20260508040740 | 69 | 77 | 5.0 | 7.0 | 0.00 | 0.00 | 0.00 | 63 | |
| 20260508040304 | 69 | 85 | 3.0 | 7.0 | 0.00 | 0.00 | 0.00 | 63 | |
| 20260508035739 | 69 | 120 | 3.0 | 7.0 | 0.00 | 0.00 | 0.00 | 62 | |
| 20260508035253 | 69 | 33 | 2.0 | 7.0 | 0.00 | 0.00 | 0.00 | 62 | |
| 20260508034754 | 69 | 137 | 3.0 | 7.0 | 0.00 | 0.00 | 0.00 | 62 | |
| 20260508034237 | 70 | 82 | 3.0 | 7.0 | 0.00 | 0.00 | 0.00 | 61 | |
| 20260508033740 | 70 | 106 | 3.0 | 7.0 | 0.00 | 0.00 | 0.00 | 61 | |
| 20260508033231 | 70 | 95 | 3.0 | 7.0 | 0.00 | 0.00 | 0.00 | 60 | |
| 20260508032733 | 71 | 112 | 4.0 | 7.0 | 0.00 | 0.00 | 0.00 | 59 | |
| 20260508032232 | 71 | 99 | 2.0 | 4.0 | 0.00 | 0.00 | 0.00 | 59 | |
| 20260508031733 | 71 | 85 | 2.0 | 6.0 | 0.00 | 0.00 | 0.00 | 58 | |
| 20260508031239 | 71 | 349 | 3.0 | 6.0 | 0.00 | 0.00 | 0.00 | 56 | |
| 20260508030740 | 72 | 10 | 3.0 | 6.0 | 0.00 | 0.00 | 0.00 | 55 | |
| 20260508030243 | 72 | 21 | 4.0 | 6.0 | 0.00 | 0.00 | 0.00 | 55 | |
| 20260508025801 | 72 | 29 | 3.0 | 6.0 | 0.00 | 0.00 | 0.00 | 54 | |
| 20260508025248 | 72 | 335 | 4.0 | 6.0 | 0.00 | 0.00 | 0.00 | 54 | |
| 20260508024751 | 73 | 326 | 2.0 | 6.0 | 0.00 | 0.00 | 0.00 | 53 | |
| 20260508024236 | 73 | 312 | 2.0 | 5.0 | 0.00 | 0.00 | 0.00 | 52 | |
| 20260508023736 | 74 | 305 | 3.0 | 5.0 | 0.00 | 0.00 | 0.00 | 51 | |
| 20260508023304 | 74 | 253 | 0.0 | 2.0 | 0.00 | 0.00 | 0.00 | 51 | |
| 20260508022800 | 75 | 253 | 0.0 | 2.0 | 0.00 | 0.00 | 0.00 | 51 | |
| 20260508022315 | 75 | 247 | 1.0 | 4.0 | 0.00 | 0.00 | 0.00 | 50 | |
| 20260508021816 | 75 | 292 | 2.0 | 5.0 | 0.00 | 0.00 | 0.00 | 50 | |
| 20260508021239 | 76 | 301 | 2.0 | 7.0 | 0.00 | 0.00 | 0.00 | 50 | |
| 20260508020740 | 76 | 290 | 3.0 | 7.0 | 0.00 | 0.00 | 0.00 | 49 | |
| 20260508020242 | 76 | 276 | 2.0 | 7.0 | 0.00 | 0.00 | 0.00 | 49 | |
| 20260508015757 | 76 | 307 | 1.0 | 6.0 | 0.00 | 0.00 | 0.00 | 49 | |
| 20260508015251 | 76 | 314 | 4.0 | 9.0 | 0.00 | 0.00 | 0.00 | 48 | |
| 20260508014812 | 77 | 281 | 2.0 | 9.0 | 0.00 | 0.00 | 0.00 | 48 | |
| 20260508014252 | 77 | 321 | 4.0 | 8.0 | 0.00 | 0.00 | 0.00 | 48 | |
| 20260508013733 | 77 | 328 | 4.0 | 9.0 | 0.00 | 0.00 | 0.00 | 48 | |
| 20260508013252 | 77 | 314 | 6.0 | 10.0 | 0.00 | 0.00 | 0.00 | 47 |